This is the latest recevied weather packets stored in our database for station/object JA0ZJX-13. If no packets are shown the sender has not sent any weather packets the latest 10 day(s).
| Time | Temp. | Humidity | Pressure | Rain* | Wind** | Luminosity | Snow |
|---|---|---|---|---|---|---|---|
| 1777700610 | 23.33° C | 29% | 1008.8 hPa | 0 mm | - | 406 W/m² | - |
| 1777700020 | 23.33° C | 30% | 1008.8 hPa | 0 mm | - | 738 W/m² | - |
| 1777699408 | 23.33° C | 29% | 1008.7 hPa | 0 mm | - | 745 W/m² | - |
| 1777698816 | 23.33° C | 29% | 1008.6 hPa | 0 mm | - | 805 W/m² | - |
| 1777698209 | 23.33° C | 31% | 1008.6 hPa | 0 mm | - | 840 W/m² | - |
| 1777697618 | 23.33° C | 31% | 1008.5 hPa | 0 mm | - | 744 W/m² | - |
| 1777697007 | 22.78° C | 31% | 1008.2 hPa | 0 mm | - | 747 W/m² | - |
| 1777696417 | 22.78° C | 32% | 1008.4 hPa | 0 mm | - | 891 W/m² | - |
| 1777695810 | 22.78° C | 33% | 1008.5 hPa | 0 mm | - | 907 W/m² | - |
| 1777695220 | 22.22° C | 32% | 1008.5 hPa | 0 mm | - | 919 W/m² | - |
| 1777694607 | 22.22° C | 36% | 1008.3 hPa | 0 mm | - | 935 W/m² | - |
| 1777694017 | 21.67° C | 35% | 1008.6 hPa | 0 mm | - | 940 W/m² | - |
| 1777693409 | 21.67° C | 38% | 1008.6 hPa | 0 mm | - | 947 W/m² | - |
| 1777692819 | 21.67° C | 39% | 1008.5 hPa | 0 mm | - | 962 W/m² | - |
| 1777692207 | 21.67° C | 38% | 1008.6 hPa | 0 mm | - | 969 W/m² | - |
| 1777691620 | 21.67° C | 39% | 1008.6 hPa | 0 mm | - | 970 W/m² | - |
| 1777691009 | 21.11° C | 40% | 1008.5 hPa | 0 mm | - | 974 W/m² | - |
| 1777690418 | 21.11° C | 42% | 1007.7 hPa | 0 mm | - | 970 W/m² | - |
| 1777689807 | 21.11° C | 42% | 1007.7 hPa | 0 mm | - | 972 W/m² | - |
| 1777689221 | 21.11° C | 42% | 1007.7 hPa | 0 mm | - | 972 W/m² | - |
| 1777688609 | 20.56° C | 44% | 1007.8 hPa | 0 mm | - | 960 W/m² | - |
| 1777688019 | 20° C | 42% | 1007.7 hPa | 0 mm | - | 958 W/m² | - |
| 1777687408 | 20° C | 41% | 1007.7 hPa | 0 mm | - | 958 W/m² | - |
| 1777686821 | 20° C | 43% | 1007.7 hPa | 0 mm | - | 951 W/m² | - |
| 1777686211 | 19.44° C | 43% | 1007.8 hPa | 0 mm | - | 935 W/m² | - |
* Rain latest hour (hover to see other rain measurements)
** Current wind speed in m/s (hover to see current wind gust speed)